Location: Powder Track
(41.8531°N, 72.3584°W)
Time: 09:02:59
(UTC+00:00)

Transit 4A - Pass Details

Date: 07 August 2021
Orbit: 871 x 974 km, 66.8° (Epoch: 20 September)

Event Time Altitude Azimuth Distance (km) Brightness Sun altitude
Rises 02:47:57 0° 195° (SSW) 3,493 - -24.8°
Reaches altitude 10° 02:50:29 10° 191° (SSW) 2,544 - -25.0°
Maximum altitude 02:56:13 57° 115° (ESE) 1,030 - -25.6°
Exits shadow 02:56:46 54° 91° (E) 1,055 7.9 -25.7°
Drops below altitude 10° 03:01:54 10° 38° (NE) 2,525 10.4 -26.2°
Sets 03:04:24 0° 34° (NE) 3,465 11.2 -26.4°
